FW7064 Weather Reports


time (UTC)temp
C
wind
direction
speed
KPH
gust
KPH
rain 1hr
cm
rain 24hr
cm
rain mn
cm
humidity
%
barometer
mb
20260509044626 11 315 0.0 0.0 0.00 0.00 0.00 84 1024.2
20260509043625 11 315 0.0 0.0 0.00 0.00 0.00 84 1024.1
20260509042626 11 315 0.0 0.0 0.00 0.00 0.00 83 1024.1
20260509041626 11 315 0.0 0.0 0.00 0.00 0.00 84 1024.1
20260509040725 11 315 0.0 0.0 0.00 0.00 0.00 83 1024.1
20260509035725 11 315 0.0 0.0 0.00 0.00 0.00 84 1024.0
20260509034824 11 315 0.0 0.0 0.00 0.00 0.00 86 1023.9
20260509034727 11 315 0.0 0.0 0.00 0.00 0.00 85 1023.9
20260509033726 11 315 0.0 0.0 0.00 0.00 0.00 85 1023.7
20260509032727 11 315 0.0 0.0 0.00 0.00 0.00 85 1023.7
20260509031726 11 315 0.0 0.0 0.00 0.00 0.00 85 1023.7
20260509030725 11 315 0.0 0.0 0.00 0.00 0.00 83 1023.6
20260509025726 11 315 0.0 0.0 0.00 0.00 0.00 83 1023.6
20260509023727 11 315 0.0 0.0 0.00 0.00 0.00 79 1023.5
20260509022824 11 315 0.0 0.0 0.00 0.00 0.00 79 1023.4
20260509021824 11 315 0.0 0.0 0.00 0.00 0.00 78 1023.4
20260509020826 11 315 0.0 0.0 0.00 0.00 0.00 79 1023.4
20260509015825 12 315 0.0 0.0 0.00 0.00 0.00 77 1023.4
20260509014826 12 315 0.0 0.0 0.00 0.00 0.00 78 1023.4
20260509013924 12 360 0.0 0.0 0.00 0.00 0.00 79 1023.4
20260509012927 12 360 0.0 0.0 0.00 0.00 0.00 79 1023.5
20260509011925 12 360 0.0 0.0 0.00 0.00 0.00 79 1023.5
20260509010925 12 360 0.0 0.0 0.00 0.00 0.00 80 1023.6
20260509005926 12 360 0.0 0.0 0.00 0.00 0.00 80 1023.6
20260509005825 12 360 0.0 0.0 0.00 0.00 0.00 80 1023.5
20260509004924 12 22 0.0 0.0 0.00 0.00 0.00 80 1023.5
20260509002025 12 22 0.0 0.0 0.00 0.00 0.00 80 1023.5
20260509001025 12 22 0.0 0.0 0.00 0.00 0.00 80 1023.6
20260509000123 12 360 0.0 0.0 0.00 0.00 0.00 80 1023.7
20260508235124 12 22 0.0 0.0 0.00 0.00 0.00 80 1023.6
20260508234125 12 352 0.0 0.0 0.00 0.00 0.00 80 1023.6
20260508233126 12 315 0.0 0.0 0.00 0.00 0.00 80 1023.4
20260508232125 12 315 0.0 0.0 0.00 0.00 0.00 80 1023.4
20260508231125 12 315 0.0 0.0 0.00 0.00 0.00 78 1023.4
20260508230124 12 315 0.0 0.0 0.00 0.00 0.00 78 1023.5
20260508230025 12 315 0.0 0.0 0.00 0.00 0.00 79 1023.5
20260508225025 12 315 0.0 0.0 0.00 0.00 0.00 79 1023.4
20260508224026 12 315 0.0 0.0 0.00 0.00 0.00 80 1023.3
20260508223026 12 315 0.0 0.0 0.00 0.00 0.00 80 1023.4
20260508222026 12 315 0.0 0.0 0.00 0.00 0.00 80 1023.4
20260508220125 12 315 0.0 0.0 0.00 0.00 0.00 80 1023.4
20260508215125 12 315 0.0 0.0 0.00 0.00 0.00 80 1023.4
20260508213225 12 315 0.0 0.0 0.00 0.00 0.00 80 1023.3
20260508212224 12 315 0.0 0.0 0.00 0.00 0.00 81 1023.3
20260508210225 11 315 0.0 0.0 0.00 0.00 0.00 82 1023.3
20260508205226 11 315 0.0 0.0 0.00 0.00 0.00 83 1023.1
20260508204226 11 315 0.0 0.0 0.00 0.00 0.00 83 1022.9
20260508204124 11 315 0.0 0.0 0.00 0.00 0.00 83 1022.9
20260508203126 11 292 0.0 0.0 0.00 0.00 0.00 83 1023.0
20260508202126 11 292 0.0 0.0 0.00 0.00 0.00 83 1022.9
20260508201127 11 292 0.0 0.0 0.00 0.00 0.00 83 1022.8
20260508195126 11 292 0.0 0.0 0.00 0.00 0.00 82 1022.7
20260508194125 11 292 0.0 0.0 0.00 0.00 0.00 82 1022.6
20260508193126 11 292 0.0 0.0 0.00 0.00 0.00 83 1022.7
20260508192225 11 182 0.0 0.0 0.00 0.00 0.00 83 1022.6
20260508191226 11 180 0.0 0.0 0.00 0.00 0.00 84 1022.4
20260508190225 11 294 0.0 0.0 0.00 0.00 0.00 84 1022.2
20260508185225 11 308 0.0 0.0 0.00 0.00 0.00 84 1022.2
20260508184227 11 292 0.0 0.0 0.00 0.00 0.00 85 1022.2
20260508183227 11 305 0.0 0.0 0.00 0.00 0.00 86 1022.0
20260508182223 11 292 0.0 0.0 0.00 0.00 0.00 85 1022.2
20260508181225 11 292 0.0 0.0 0.00 0.00 0.00 87 1022.1
20260508181126 11 292 0.0 0.0 0.00 0.00 0.00 87 1022.0
20260508180126 11 292 0.0 0.0 0.00 0.00 0.00 88 1021.8
20260508175127 11 292 0.0 0.0 0.00 0.00 0.00 88 1021.6
20260508174126 11 294 0.0 0.0 0.00 0.00 0.00 89 1021.6
20260508173127 11 292 0.0 0.0 0.00 0.00 0.00 90 1021.4
20260508172224 11 315 0.0 0.0 0.00 0.00 0.00 89 1021.4
20260508171226 11 292 0.0 0.0 0.00 0.00 0.00 89 1021.4
20260508170324 11 292 0.0 0.0 0.00 0.00 0.00 89 1021.4
20260508165325 11 315 0.0 0.0 0.00 0.00 0.00 89 1021.1
20260508163325 11 315 0.0 0.0 0.00 0.00 0.00 90 1020.9
20260508162326 11 315 0.0 0.0 0.00 0.00 0.00 88 1020.6
20260508160326 11 315 0.0 0.0 0.00 0.00 0.00 88 1020.4
20260508155326 11 292 0.0 0.0 0.00 0.00 0.00 89 1020.4
20260508153424 11 157 0.0 0.0 0.00 0.00 0.00 89 1020.4
20260508152425 11 157 0.0 0.0 0.00 0.00 0.00 89 1020.4
20260508151426 11 292 0.0 0.0 0.00 0.00 0.00 88 1020.4
20260508150523 11 292 0.0 0.0 0.00 0.00 0.00 89 1020.2
20260508145525 11 284 0.0 0.0 0.00 0.00 0.00 89 1020.1
20260508144526 11 214 0.0 0.0 0.00 0.00 0.00 90 1020.1
20260508143525 11 284 0.0 0.0 0.00 0.00 0.00 90 1019.9
20260508142527 11 262 0.0 0.0 0.00 0.00 0.00 89 1019.8
20260508141625 11 279 0.0 0.0 0.00 0.00 0.00 90 1019.7
20260508140724 11 277 0.0 0.0 0.00 0.00 0.00 89 1019.5
20260508135725 10 221 0.0 0.0 0.00 0.00 0.00 90 1019.4
20260508134724 10 224 0.0 0.0 0.00 0.00 0.00 91 1019.2
20260508133725 10 226 0.0 0.0 0.00 0.00 0.00 91 1019.1
20260508132825 10 292 0.0 0.0 0.00 0.00 0.00 90 1019.0
20260508131824 10 230 0.0 0.0 0.00 0.00 0.00 91 1019.0
20260508130827 10 292 0.0 0.0 0.00 0.00 0.00 90 1018.8
20260508125924 10 289 0.0 0.0 0.00 0.00 0.00 92 1018.8
20260508124927 10 261 0.0 0.0 0.00 0.00 0.00 92 1018.8
20260508123926 10 292 0.0 0.0 0.00 0.00 0.00 92 1018.6
20260508122925 10 294 0.0 0.0 0.00 0.00 0.00 91 1018.5
20260508121927 10 296 0.0 0.0 0.00 0.00 0.00 92 1018.6
20260508120926 10 294 0.0 0.0 0.00 0.00 0.00 92 1018.8
20260508115926 10 292 0.0 0.0 0.00 0.00 0.00 92 1018.6
20260508114926 11 292 0.0 0.0 0.00 0.00 0.00 93 1018.5
20260508113926 11 294 0.0 0.0 0.00 0.00 0.00 93 1018.5
20260508112925 10 294 0.0 0.0 0.00 0.00 0.00 94 1018.5
20260508111925 10 292 0.0 0.0 0.00 0.00 0.00 95 1018.3
20260508111024 10 292 0.0 0.0 0.00 0.00 0.00 94 1018.3
20260508110926 11 292 0.0 0.0 0.00 0.00 0.00 95 1018.2
20260508105926 11 292 0.0 0.0 0.00 0.00 0.00 95 1018.3
20260508104925 11 292 0.0 0.0 0.00 0.00 0.00 95 1018.1
20260508102927 10 292 0.0 0.0 0.00 0.00 0.00 94 1018.1
20260508102025 10 294 0.0 0.0 0.00 0.00 0.00 95 1018.1
20260508101026 11 180 0.0 0.0 0.00 0.00 0.00 95 1018.0
20260508100025 11 157 0.0 0.0 0.00 0.00 0.00 95 1018.0
20260508095027 11 157 0.0 0.0 0.00 0.00 0.00 95 1017.9
20260508093126 11 157 0.0 0.0 0.00 0.00 0.00 94 1017.6
20260508092127 11 157 0.0 0.0 0.00 0.00 0.00 94 1017.8
20260508091127 11 157 0.0 0.0 0.00 0.00 0.00 94 1017.7
20260508090124 11 157 0.0 0.0 0.00 0.00 0.00 94 1017.8
20260508090026 11 157 0.0 0.0 0.00 0.00 0.00 94 1017.8
20260508085125 10 292 0.0 0.0 0.00 0.00 0.00 93 1017.9
20260508084125 11 292 0.0 0.0 0.00 0.00 0.00 92 1017.8
20260508083025 10 292 0.0 0.0 0.00 0.00 0.00 93 1017.8
20260508081927 10 292 0.0 0.0 0.00 0.00 0.00 93 1017.9
20260508075925 11 292 0.0 0.0 0.00 0.00 0.00 92 1017.9
20260508074926 10 292 0.0 0.0 0.00 0.00 0.00 91 1017.8
20260508073925 10 292 0.0 0.0 0.00 0.00 0.00 91 1017.9
20260508072925 10 292 0.0 0.0 0.00 0.00 0.00 92 1018.1
20260508071926 10 292 0.0 0.0 0.00 0.00 0.00 91 1018.2
20260508070925 10 292 0.0 0.0 0.00 0.00 0.00 91 1018.2
20260508070009 10 292 0.0 0.0 0.00 0.00 0.00 91 1018.2
20260508065010 10 292 0.0 0.0 0.00 0.00 0.00 91 1018.3
20260508064110 10 292 0.0 0.0 0.00 0.00 0.00 90 1018.2
20260508063109 10 292 0.0 0.0 0.00 0.00 0.00 90 1018.2
20260508062109 10 292 0.0 0.0 0.00 0.00 0.00 90 1018.3
20260508061110 10 292 0.0 0.0 0.00 0.00 0.00 89 1018.4
20260508060109 10 292 0.0 0.0 0.00 0.00 0.00 89 1018.5
20260508055111 10 292 0.0 0.0 0.00 0.00 0.00 88 1018.6
20260508053209 10 292 0.0 0.0 0.00 0.00 0.00 88 1018.5
20260508051211 10 292 0.0 0.0 0.00 0.00 0.00 87 1018.5
20260508050210 10 292 0.0 0.0 0.00 0.00 0.00 88 1018.5